TimeMDT,TemperatureF,Dew PointF,Humidity,Sea Level PressureIn,VisibilityMPH,Wind Direction,Wind SpeedMPH,Gust SpeedMPH,PrecipitationIn,Events,Conditions,WindDirDegrees,DateUTC
12:53 AM,44.1,37.0,76,29.68,10.0,WSW,12.7,-,N/A,,Overcast,250,2013-04-11 06:53:00
1:53 AM,44.1,36.0,73,29.70,10.0,West,15.0,-,0.00,Rain,Light Rain,280,2013-04-11 07:53:00
2:53 AM,42.1,39.0,89,29.70,10.0,West,12.7,-,0.01,Rain,Light Rain,270,2013-04-11 08:53:00
3:29 AM,42.8,39.2,87,29.70,10.0,WNW,20.7,28.8,0.05,Rain,Light Rain,300,2013-04-11 09:29:00
3:53 AM,41.0,37.9,89,29.73,9.0,WNW,21.9,27.6,0.06,Rain,Light Rain,300,2013-04-11 09:53:00
4:53 AM,39.0,36.0,89,29.78,10.0,NW,19.6,29.9,0.01,,Overcast,310,2013-04-11 10:53:00
5:13 AM,39.2,35.6,87,29.77,10.0,WNW,15.0,-,N/A,,Overcast,300,2013-04-11 11:13:00
5:23 AM,39.2,35.6,87,29.78,10.0,NW,16.1,26.5,N/A,,Overcast,310,2013-04-11 11:23:00
5:53 AM,37.9,35.1,89,29.82,10.0,WNW,20.7,25.3,N/A,,Overcast,300,2013-04-11 11:53:00
6:53 AM,37.9,35.1,89,29.84,7.0,WNW,12.7,-,N/A,,Overcast,300,2013-04-11 12:53:00
7:53 AM,39.0,36.0,89,29.89,9.0,WNW,13.8,-,N/A,,Overcast,290,2013-04-11 13:53:00
8:38 AM,39.2,35.6,87,29.86,10.0,NNW,11.5,-,N/A,,Overcast,330,2013-04-11 14:38:00
8:53 AM,39.9,35.1,83,29.89,10.0,NW,13.8,-,N/A,,Overcast,310,2013-04-11 14:53:00
9:51 AM,42.8,35.6,76,29.86,10.0,WNW,15.0,-,N/A,,Overcast,290,2013-04-11 15:51:00
9:53 AM,43.0,35.1,74,29.89,10.0,WNW,16.1,-,N/A,,Overcast,300,2013-04-11 15:53:00
10:53 AM,46.4,35.6,66,29.88,10.0,WNW,13.8,19.6,N/A,,Mostly Cloudy,300,2013-04-11 16:53:00
11:40 AM,46.4,35.6,66,29.88,10.0,WNW,9.2,-,N/A,,Overcast,290,2013-04-11 17:40:00
11:53 AM,48.0,35.1,61,29.91,10.0,NW,12.7,-,N/A,,Overcast,310,2013-04-11 17:53:00
12:53 PM,51.1,33.1,50,29.88,-9999.0,West,16.1,-,N/A,,Overcast,280,2013-04-11 18:53:00
1:53 PM,55.0,25.0,31,29.86,-9999.0,NW,12.7,26.5,N/A,,Overcast,310,2013-04-11 19:53:00
2:53 PM,57.0,25.0,29,29.85,10.0,NNW,13.8,18.4,N/A,,Overcast,330,2013-04-11 20:53:00
3:53 PM,55.9,26.1,32,29.83,10.0,Variable,3.5,-,N/A,,Mostly Cloudy,0,2013-04-11 21:53:00
4:53 PM,51.1,28.0,41,29.86,10.0,NNW,11.5,-,N/A,,Mostly Cloudy,330,2013-04-11 22:53:00
5:53 PM,45.0,37.0,74,29.90,10.0,Calm,Calm,-,0.02,Rain,Light Rain,0,2013-04-11 23:53:00
6:53 PM,46.0,36.0,68,29.87,10.0,ESE,4.6,-,0.00,,Overcast,110,2013-04-12 00:53:00
7:53 PM,44.1,37.0,76,29.88,10.0,East,3.5,-,N/A,,Overcast,90,2013-04-12 01:53:00
8:53 PM,42.1,37.0,82,29.91,10.0,SW,6.9,-,N/A,,Mostly Cloudy,230,2013-04-12 02:53:00
9:20 PM,41.0,37.4,87,29.88,4.0,North,10.4,-,0.05,Rain,Rain,350,2013-04-12 03:20:00
9:37 PM,39.2,37.4,93,29.88,-9999.0,Calm,Calm,-,0.06,Rain,Light Rain,0,2013-04-12 03:37:00
9:53 PM,39.9,37.0,89,29.92,-9999.0,North,5.8,-,0.06,Rain,Light Rain,10,2013-04-12 03:53:00
10:17 PM,39.2,37.4,93,29.89,-9999.0,SW,8.1,-,0.00,,Overcast,220,2013-04-12 04:17:00
10:27 PM,39.2,35.6,87,29.89,-9999.0,SW,3.5,-,0.00,,Overcast,230,2013-04-12 04:27:00
10:44 PM,39.2,35.6,87,29.89,-9999.0,WSW,9.2,-,0.00,Rain,Light Rain,240,2013-04-12 04:44:00
10:53 PM,37.9,36.0,93,29.93,-9999.0,WSW,8.1,-,0.00,Rain,Light Rain,250,2013-04-12 04:53:00
11:01 PM,37.4,35.6,93,29.88,-9999.0,WSW,5.8,-,0.00,Rain,Light Rain,240,2013-04-12 05:01:00
11:31 PM,37.4,35.6,93,29.88,-9999.0,WNW,13.8,-,0.00,,Overcast,290,2013-04-12 05:31:00
11:53 PM,37.9,36.0,93,29.92,-9999.0,NW,10.4,-,0.00,Rain,Light Rain,310,2013-04-12 05:53:00